Regional Weather Roundup
Issued by NWS

Home | Current Version | Previous Version | Graphics & Text | Print | Product List | Glossary On
Versions: 1 2 3 4 5 6 7 8 9 10 11 12 13 14 15 16 17 18 19 20 21 22 23 24 25 26 27 28 29 30 31 32 33 34 35 36 37 38 39 40 41 42 43 44 45 46 47 48 49 50
481
ASUS44 KLIX 040510
RWRLA
LOUISIANA WEATHER ROUNDUP
NATIONAL WEATHER SERVICE NEW ORLEANS LA
1100 PM CST TUE MAR 03 2015

NOTE: "FAIR" INDICATES FEW OR NO CLOUDS BELOW 12,000 FEET WITH NO
      SIGNIFICANT WEATHER AND/OR OBSTRUCTIONS TO VISIBILITY.
      SKY/WX - SKY CONDITION AND SIGNIFICANT WEATHER.
      TMP - AIR TEMPERATURE.    DP   - DEWPOINT TEMPERATURE.
      RH  - RELATIVE HUMIDITY.  PRES - PRESSURE.
      HX  - HEAT INDEX.         WCI  - WIND CHILL INDEX.

*  THESE STATIONS ARE NOT NWS OR FAA STATIONS AND ARE NOT UNDER
   NWS QUALITY CONTROL.

LAZ040-048-061>063-065-066-069-040600-
SOUTHEAST LOUISIANA

CITY           SKY/WX    TMP DP  RH WIND       PRES   REMARKS
N.O. AUDUBON     N/A     70  70 100 MISG        N/A
N.O. INTL ARPT MOCLDY    70  65  84 SE9       30.00F
N.O. LAKEFRONT CLEAR     70  65  84 SE8       30.02S
SLIDELL        CLOUDY    68  68 100 SE7       30.02S
BATON ROUGE    MOCLDY    69  67  93 SE7       29.98F
BOOTHVILLE     FOG       64  63  96 E5        30.03F VSB 1/4
BELLE CHASSE   PTCLDY    68  65  90 SE7       30.00F
BOGALUSA*        N/A     70  66  86 S6        30.04F
GALLIANO*      MOCLDY    71  68  90 CALM      30.01F
NEW ROADS*     CLOUDY    69  68  96 SE6       29.98F
GONZALES*      MOCLDY    68  68 100 CALM      29.99F
HAMMOND*       CLOUDY    66  63  88 CALM      30.02F
HOUMA*         MOCLDY    70  69  96 SE7       30.00F
PORT FOURCHON* PTCLDY    70  66  88 SE8       30.04F FOG

$$

LAZ041-044-053-054-040600-
SOUTHWEST LOUISIANA

CITY           SKY/WX    TMP DP  RH WIND       PRES   REMARKS
LAKE CHARLES   CLOUDY    69  68  96 S8        29.95S
LAFAYETTE      CLOUDY    68  67  96 S5        29.97S
PATTERSON      CLEAR     68  66  94 S7        29.99S
SALT POINT       N/A     64  64 100 SE6       29.97S
NEW IBERIA     FOG       67  65  93 SE7       29.98S VSB 1/2
CHENAULT AIRPK CLOUDY    68  68  99 S6        29.96S FOG

$$

LAZ027-028-040600-
CENTRAL LOUISIANA

CITY           SKY/WX    TMP DP  RH WIND       PRES   REMARKS
FORT POLK      CLOUDY    68  66  91 S9        29.93F
ALEXANDRIA INT PTCLDY    65  64  97 S5        29.94F
ALEXANDRIA     LGT RAIN  69  65  86 SW3       29.96S

$$

LAZ001-002-040600-
NORTHWEST LOUISIANA

CITY           SKY/WX    TMP DP  RH WIND       PRES   REMARKS
SHREVEPORT     CLOUDY    67  63  87 S10       29.89R
BARKSDALE AFB  MOCLDY    66  63  91 S12       29.90R
DTN SHREVEPORT CLOUDY    67  61  81 S14       29.89R

$$

LAZ014-016-040600-
NORTHEAST LOUISIANA

CITY           SKY/WX    TMP DP  RH WIND       PRES   REMARKS
MONROE         CLEAR     67  63  87 S7        29.93F
TALLULAH       PTCLDY    66  64  93 S7        29.96S

$$




USA.gov is the U.S. government's official web portal to all federal, state and local government web resources and services.